Moody AFB, GA

1:17 AM EST on December 09, 2016 (GMT -0500)
Moody Air Force Base

Weather History for KVAD - February, 2013

Change the Weather History Date:

Tuesday, February 19, 2013

  Actual Average Record
Temperature  
Mean Temperature 52 °F -  
Max Temperature 66 °F 65 °F 80 °F (2000)
Min Temperature 37 °F 45 °F 27 °F (2015)
Degree Days  
Heating Degree Days 14    
Growing Degree Days 2 (Base 50)    
Moisture  
Dew Point 53 °F    
Average Humidity 95    
Maximum Humidity 100    
Minimum Humidity 68    
Precipitation  
Precipitation 0.16 in - - ()
Sea Level Pressure  
Sea Level Pressure 30.09 in    
Wind  
Wind Speed 7 mph (West)    
Max Wind Speed 20 mph    
Max Gust Speed 29 mph    
Visibility 5 miles    
Events Fog , Rain    
Averages and records for this station are not official NWS values.
T = Trace of Precipitation, MM = Missing Value Source: NWS Daily Summary

Daily Weather History Graph

Daily Weather History Graph

Search for Another Location

Airport or City:

Trip Planner

Search our weather history database for the weather conditions in past years. The results will help you decide how hot, cold, wet, or windy it might be!

Date:

Astronomy

Feb. 19, 2013 Rise Set
Actual Time 7:09 AM EST 6:23 PM EST
Civil Twilight 6:45 AM EST 6:48 PM EST
Nautical Twilight 6:16 AM EST 7:16 PM EST
Astronomical Twilight 5:48 AM EST 7:44 PM EST
Moon 1:06 PM EST (2/19) 2:28 AM EST (2/19)
Length of Visible Light 12h 03m
Length of Day
11h 14m
Waxing Gibbous, 67% of the Moon is Illuminated
Feb 19
Waxing Gibbous
Feb 25
Full
Mar 4
Last Quarter
Mar 11
New
Mar 19
First Quarter

Hourly Weather History & Observations

Time (EST) Temp. Windchill Dew Point Humidity Pressure Visibility Wind Dir Wind Speed Gust Speed Precip Events Conditions
2:55 AM 37.4 °F - 35.6 °F 93% 30.15 in 10.0 mi Calm Calm - N/A   Clear
3:58 AM 37.8 °F - 35.4 °F 91% 30.14 in 10.0 mi SE 2.3 mph - N/A   Clear
4:58 AM 40.5 °F 37.3 °F 38.5 °F 93% 30.12 in 10.0 mi SSE 4.6 mph - N/A   Clear
5:58 AM 43.5 °F 38.3 °F 41.4 °F 92% 30.11 in 10.0 mi SSE 9.2 mph - N/A   Clear
6:58 AM 43.3 °F 39.2 °F 41.0 °F 91% 30.12 in 10.0 mi South 6.9 mph - N/A   Partly Cloudy
7:58 AM 46.8 °F - 44.4 °F 92% 30.12 in 10.0 mi South 6.9 mph - N/A   Scattered Clouds
8:58 AM 54.5 °F - 48.7 °F 81% 30.12 in 10.0 mi South 11.5 mph - N/A   Mostly Cloudy
9:58 AM 57.9 °F - 48.7 °F 71% 30.11 in 10.0 mi South 18.4 mph - N/A   Mostly Cloudy
10:58 AM 60.3 °F - 49.5 °F 68% 30.11 in 10.0 mi SSW 16.1 mph - N/A   Mostly Cloudy
11:09 AM 60.8 °F - 50.0 °F 68% 30.11 in 10.0 mi South 13.8 mph - N/A Rain Light Rain
11:24 AM 62.6 °F - 51.8 °F 68% 30.10 in 10.0 mi South 13.8 mph - N/A   Scattered Clouds
11:28 AM 62.6 °F - 51.8 °F 68% 30.09 in 10.0 mi South 16.1 mph - N/A Rain Light Rain
11:58 AM 60.6 °F - 53.8 °F 78% 30.08 in 10.0 mi South 16.1 mph - 0.01 in Rain Light Rain
12:12 PM 62.6 °F - 53.6 °F 72% 30.07 in 10.0 mi South 15.0 mph - N/A   Mostly Cloudy
12:42 PM 62.6 °F - 53.6 °F 72% 30.06 in 10.0 mi South 13.8 mph - N/A Rain Light Rain
12:58 PM 63.9 °F - 55.0 °F 73% 30.05 in 10.0 mi South 15.0 mph - 0.00 in Rain Light Rain
1:10 PM 64.4 °F - 57.2 °F 77% 30.04 in 10.0 mi SSW 13.8 mph - N/A   Scattered Clouds
1:37 PM 66.2 °F - 57.2 °F 73% 30.03 in 10.0 mi SSW 19.6 mph 28.8 mph N/A Rain Light Rain
1:58 PM 66.9 °F - 56.8 °F 70% 30.02 in 10.0 mi SSW 16.1 mph 26.5 mph 0.00 in Rain Light Rain
2:55 PM 64.4 °F - 60.8 °F 88% 30.01 in 10.0 mi SSW 16.1 mph - N/A   Overcast
2:58 PM 64.2 °F - 60.1 °F 86% 30.01 in 10.0 mi SSW 16.1 mph - 0.01 in   Overcast
3:29 PM 66.2 °F - 60.8 °F 83% 30.00 in 10.0 mi SSW 12.7 mph - N/A Rain Light Rain
3:42 PM 64.4 °F - 60.8 °F 88% 30.01 in 8.0 mi WSW 12.7 mph - N/A Rain Light Rain
3:47 PM 64.4 °F - 60.8 °F 88% 30.02 in 5.0 mi West 10.4 mph - N/A Rain Rain
3:53 PM 64.4 °F - 60.8 °F 88% 30.02 in 4.0 mi West 10.4 mph - N/A Rain Light Rain
3:58 PM 63.3 °F - 61.3 °F 93% 30.04 in 3.0 mi West 10.4 mph - 0.04 in Rain Rain
4:00 PM 62.6 °F - 60.8 °F 94% 30.03 in 2.5 mi West 8.1 mph - N/A Rain Rain
4:02 PM 62.6 °F - 62.6 °F 100% 30.03 in 2.5 mi West 8.1 mph - N/A Rain Light Rain
4:06 PM 62.6 °F - 62.6 °F 100% 30.03 in 2.5 mi West 5.8 mph - N/A Rain Light Rain
4:08 PM 62.6 °F - 62.6 °F 100% 30.03 in 2.5 mi West 5.8 mph - N/A Rain Light Rain
4:10 PM 62.6 °F - 62.6 °F 100% 30.03 in 3.0 mi WNW 6.9 mph - N/A Rain Light Rain
4:16 PM 62.6 °F - 62.6 °F 100% 30.04 in 2.5 mi NW 16.1 mph 19.6 mph N/A Rain Light Rain
4:18 PM 60.8 °F - 60.8 °F 100% 30.04 in 2.5 mi NW 16.1 mph 19.6 mph N/A Rain Heavy Rain
4:30 PM 59.0 °F - 59.0 °F 100% 30.04 in 3.0 mi NW 10.4 mph - N/A Rain Light Rain
4:32 PM 59.0 °F - 59.0 °F 100% 30.04 in 4.0 mi NW 10.4 mph - N/A Rain Light Rain
4:48 PM 59.0 °F - 59.0 °F 100% 30.04 in 5.0 mi NW 10.4 mph - N/A Rain Light Rain
4:58 PM 58.8 °F - 58.6 °F 99% 30.06 in 6.0 mi NNW 11.5 mph - 0.09 in Rain Light Rain
5:04 PM 59.0 °F - 59.0 °F 100% 30.05 in 4.0 mi NW 12.7 mph - N/A Rain Light Rain
5:08 PM 59.0 °F - 57.2 °F 94% 30.05 in 4.0 mi NW 11.5 mph - N/A Rain Light Rain
5:14 PM 59.0 °F - 57.2 °F 94% 30.05 in 3.0 mi NW 8.1 mph - N/A Rain Light Rain
5:25 PM 59.0 °F - 57.2 °F 94% 30.06 in 10.0 mi NW 8.1 mph - N/A   Overcast
5:40 PM 59.0 °F - 57.2 °F 94% 30.06 in 10.0 mi NW 5.8 mph - N/A   Overcast
5:58 PM 58.3 °F - 58.1 °F 99% 30.08 in 10.0 mi WNW 4.6 mph - 0.01 in   Mostly Cloudy
7:13 PM 55.4 °F - 53.6 °F 94% 30.08 in 2.0 mi WSW 2.3 mph - N/A   Clear
7:15 PM 55.4 °F - 53.6 °F 94% 30.08 in 1.2 mi WSW 2.3 mph - N/A   Clear
7:17 PM 55.4 °F - 55.4 °F 100% 30.09 in 1.0 mi WSW 3.5 mph - N/A   Clear
7:23 PM 55.4 °F - 55.4 °F 100% 30.09 in 1.5 mi West 4.6 mph - N/A   Clear
7:25 PM 55.4 °F - 55.4 °F 100% 30.09 in 3.0 mi West 4.6 mph - N/A   Clear
7:27 PM 55.4 °F - 55.4 °F 100% 30.09 in 6.0 mi West 5.8 mph - N/A   Clear
7:29 PM 55.4 °F - 55.4 °F 100% 30.09 in 9.0 mi West 5.8 mph - N/A   Clear
7:31 PM 55.4 °F - 55.4 °F 100% 30.09 in 10.0 mi West 4.6 mph - N/A   Clear
7:41 PM 55.4 °F - 55.4 °F 100% 30.10 in 9.0 mi West 4.6 mph - N/A   Clear
7:49 PM 53.6 °F - 53.6 °F 100% 30.10 in 10.0 mi West 4.6 mph - N/A   Clear
7:58 PM 54.9 °F - 54.5 °F 99% 30.11 in 10.0 mi West 3.5 mph - N/A   Clear
8:00 PM 53.6 °F - 53.6 °F 100% 30.10 in 5.0 mi West 3.5 mph - N/A   Clear
8:04 PM 53.6 °F - 53.6 °F 100% 30.10 in 3.0 mi West 3.5 mph - N/A   Clear
8:06 PM 53.6 °F - 53.6 °F 100% 30.10 in 2.0 mi WSW 3.5 mph - N/A   Clear
8:08 PM 53.6 °F - 53.6 °F 100% 30.10 in 1.8 mi WSW 3.5 mph - N/A   Clear
8:12 PM 53.6 °F - 53.6 °F 100% 30.10 in 1.0 mi WSW 3.5 mph - N/A   Clear
8:14 PM 53.6 °F - 53.6 °F 100% 30.10 in 0.8 mi WSW 3.5 mph - N/A   Clear
8:16 PM 53.6 °F - 53.6 °F 100% 30.10 in 0.5 mi WSW 3.5 mph - N/A Fog Fog
8:18 PM 53.6 °F - 53.6 °F 100% 30.10 in 0.5 mi WSW 3.5 mph - N/A Fog Fog
8:19 PM 53.6 °F - 51.8 °F 94% 30.10 in 2.0 mi WSW 3.5 mph - N/A   Clear
8:20 PM 53.6 °F - 51.8 °F 94% 30.10 in 0.5 mi West 3.5 mph - N/A Fog Fog
8:21 PM 51.8 °F - 51.8 °F 100% 30.10 in 0.2 mi West 3.5 mph - N/A Fog Fog
8:29 PM 53.6 °F - 53.6 °F 100% 30.10 in 0.2 mi WNW 3.5 mph - N/A Fog Fog
8:33 PM 53.6 °F - 53.6 °F 100% 30.10 in 0.5 mi WNW 3.5 mph - N/A Fog Fog
8:35 PM 53.6 °F - 53.6 °F 100% 30.10 in 0.2 mi WNW 3.5 mph - N/A Fog Fog
8:49 PM 51.8 °F - 51.8 °F 100% 30.10 in 0.5 mi West 3.5 mph - N/A Fog Fog
8:53 PM 51.8 °F - 51.8 °F 100% 30.10 in 0.5 mi West 2.3 mph - N/A Fog Fog
8:58 PM 50.4 °F - 50.2 °F 99% 30.11 in 0.5 mi NW 2.3 mph - N/A Fog Fog
9:00 PM 50.0 °F - 50.0 °F 100% 30.10 in 0.2 mi NW 2.3 mph - N/A Fog Fog
9:30 PM 50.0 °F - 50.0 °F 100% 30.10 in 0.5 mi Calm Calm - N/A Fog Fog
9:38 PM 48.2 °F - 48.2 °F 100% 30.10 in 0.5 mi West 1.2 mph - N/A Fog Fog
9:52 PM 48.2 °F - 48.2 °F 100% 30.10 in 0.5 mi WNW 4.6 mph - N/A Fog Fog
9:54 PM 50.0 °F - 48.2 °F 94% 30.10 in 0.8 mi West 3.5 mph - N/A   Clear
9:56 PM 50.0 °F - 50.0 °F 100% 30.10 in 1.2 mi West 4.6 mph - N/A   Clear
9:59 PM 50.0 °F - 50.0 °F 100% 30.11 in 2.0 mi West 4.6 mph - N/A   Clear
10:01 PM 51.8 °F - 51.8 °F 100% 30.11 in 8.0 mi West 3.5 mph - N/A   Clear
10:03 PM 51.8 °F - 51.8 °F 100% 30.11 in 10.0 mi West 3.5 mph - N/A   Clear
10:07 PM 51.8 °F - 51.8 °F 100% 30.11 in 9.0 mi West 2.3 mph - N/A   Clear
10:09 PM 50.0 °F - 50.0 °F 100% 30.11 in 4.0 mi West 1.2 mph - N/A   Clear
10:11 PM 50.0 °F - 50.0 °F 100% 30.11 in 1.8 mi Calm Calm - N/A   Clear
10:13 PM 50.0 °F - 50.0 °F 100% 30.11 in 1.0 mi Calm Calm - N/A   Clear
10:15 PM 48.2 °F - 48.2 °F 100% 30.11 in 0.8 mi Calm Calm - N/A   Clear
10:17 PM 48.2 °F - 48.2 °F 100% 30.11 in 0.5 mi Calm Calm - N/A Fog Fog
10:19 PM 48.2 °F - 48.2 °F 100% 30.11 in 0.5 mi Calm Calm - N/A Fog Fog
10:25 PM 46.4 °F - 46.4 °F 100% 30.11 in 0.8 mi Calm Calm - N/A   Clear
10:29 PM 46.4 °F - 46.4 °F 100% 30.10 in 0.5 mi SE 1.2 mph - N/A Fog Fog
10:31 PM 46.4 °F - 46.4 °F 100% 30.11 in 0.5 mi South 2.3 mph - N/A Fog Fog
10:53 PM 46.4 °F - 46.4 °F 100% 30.11 in 0.2 mi West 1.2 mph - N/A Fog Fog
10:55 PM 46.4 °F - 46.4 °F 100% 30.11 in 0.5 mi West 2.3 mph - N/A Fog Fog
10:57 PM 46.4 °F 45.2 °F 46.4 °F 100% 30.11 in 0.5 mi West 3.5 mph - N/A Fog Fog
10:58 PM 46.4 °F - 46.4 °F 100% 30.12 in 0.8 mi West 2.3 mph - N/A   Clear
11:00 PM 46.4 °F 45.2 °F 46.4 °F 100% 30.11 in 1.0 mi West 3.5 mph - N/A   Clear
11:02 PM 46.4 °F 45.2 °F 46.4 °F 100% 30.12 in 3.0 mi WNW 3.5 mph - N/A   Clear
11:04 PM 46.4 °F 45.2 °F 46.4 °F 100% 30.12 in 8.0 mi WNW 3.5 mph - N/A   Clear
11:06 PM 46.4 °F 44.3 °F 46.4 °F 100% 30.12 in 10.0 mi WNW 4.6 mph - N/A   Clear
11:08 PM 46.4 °F 44.3 °F 46.4 °F 100% 30.12 in 8.0 mi WNW 4.6 mph - N/A   Clear
11:10 PM 46.4 °F 44.3 °F 46.4 °F 100% 30.11 in 6.0 mi WNW 4.6 mph - N/A   Clear
11:18 PM 48.2 °F - 48.2 °F 100% 30.12 in 7.0 mi WNW 4.6 mph - N/A   Clear
11:20 PM 48.2 °F - 48.2 °F 100% 30.11 in 9.0 mi WNW 5.8 mph - N/A   Clear
11:58 PM 46.2 °F 42.7 °F 46.2 °F 100% 30.12 in 10.0 mi NW 6.9 mph - N/A   Clear